PulseSat

PulseSat

GSAT0218 (PRN E31)

Last updated on March 22, 2019, 3:12 a.m. UTC

1 43058U 17079D   19079.66664900 -.00000004  00000-0  00000-0 0  9992
2 43058  56.6298 294.2515 0002380 269.0029  91.0119  1.70473786  7918
UTC
Height (km)
Latitude
Longitude
Inclination
Orbital Period

Next 30 passes for location: Hong Kong

Rise time Rise Azimuth (degrees) Set time Set Azimuth (degrees) Duration Max altitude (degrees)

No matching passes for this satellites

PulseSat

PulseSat is the new satellites software and hardware trackering solution by Pulsely.
Satellite Two Line Element Set source: US Air Force Space Command

Download PulseSat for iOS
© 2017 Pulsely Limited